Wind_Speed
16 15 13 14 15 15 14 12 11 9 8 8 6 6 7 6 5 4 3 2 2 6 5 3 5 6 6 7 9 10 9 8 9 10 14 15 12 8 7 6 7 10 13 13 14 13 7 3 4 6 8 10 11 12 14 16 18 19 19 17 13 10 10
16 16 15 15 15 13 11 11 11 10 10 8 7 7 8 7 6 5 5 5 2 7 7 3 4 5 6 7 8 9 8 7 8 8 11 15 13 11 10 10 11 12 13 14 17 17 11 7 5 4 8 12 12 13 15 19 20 19 17 15 11 9 9
19 17 15 14 13 11 10 11 11 10 10 9 7 8 8 7 7 6 6 7 7 9 8 6 6 5 7 8 8 10 8 7 8 9 11 15 13 13 14 14 14 14 12 11 14 16 11 8 7 6 10 13 12 13 16 18 18 15 13 11 9 9 9
20 17 15 14 13 11 11 11 10 8 9 9 7 7 7 7 7 7 7 9 11 10 8 6 5 5 8 10 9 10 10 8 10 11 12 14 13 15 16 15 17 16 13 11 14 17 13 10 8 6 9 14 14 14 16 16 14 12 11 8 7 8 8
21 18 17 16 14 12 11 11 10 10 10 9 7 7 7 6 6 8 8 9 11 10 8 7 6 6 8 10 10 10 11 10 11 12 13 13 13 15 15 15 16 16 15 15 17 18 17 17 14 8 10 15 13 12 16 17 14 12 11 9 7 6 6
22 20 18 17 15 13 12 12 13 12 12 11 10 8 7 6 6 7 8 9 10 10 9 8 8 8 8 9 10 11 13 13 12 12 13 13 12 12 13 14 16 16 15 17 18 19 20 22 19 12 13 15 11 10 15 16 15 13 11 9 8 5 5
23 20 18 17 16 14 13 13 13 13 13 13 12 10 8 7 8 8 8 9 9 10 10 8 9 10 10 10 10 11 14 15 14 13 14 14 12 12 13 14 15 16 17 18 20 21 20 21 21 17 14 11 11 13 13 15 17 15 13 11 9 5 3
22 20 18 17 17 15 13 12 13 14 15 16 14 12 9 9 11 11 9 8 10 11 11 10 12 13 11 11 12 14 15 16 14 14 14 14 13 12 12 14 15 16 17 19 21 20 19 20 22 22 19 11 7 8 9 12 16 17 17 15 9 4 2
20 20 19 17 17 15 12 12 15 17 18 16 14 13 11 10 12 11 9 10 10 9 10 12 14 13 12 14 15 15 16 15 14 13 12 12 12 11 10 12 14 15 16 16 17 17 17 19 19 22 24 19 10 5 4 6 9 12 16 16 9 3 3
20 20 20 18 17 15 13 14 17 18 17 15 13 13 12 11 12 11 11 11 9 9 11 12 12 12 12 14 15 15 15 15 15 15 13 14 16 16 15 14 14 15 13 12 13 14 14 15 16 20 25 26 19 9 4 3 4 7 12 13 10 7 6
20 20 20 18 17 16 15 15 17 17 15 13 13 14 13 12 12 12 13 12 11 12 13 12 12 11 10 12 14 15 15 15 15 14 13 15 18 19 20 19 18 16 14 14 16 18 17 16 14 14 20 26 26 17 11 6 3 7 13 12 10 11 10
20 21 20 18 17 17 16 16 17 16 14 14 15 16 15 14 13 14 15 13 12 13 12 12 12 10 10 12 14 14 14 15 15 14 14 15 16 17 19 19 18 17 15 16 20 21 20 19 18 15 13 22 27 25 22 16 5 6 13 12 11 12 12
20 21 21 19 17 17 16 16 16 15 15 16 17 17 15 15 15 15 15 13 14 15 13 12 12 11 12 12 12 13 14 14 15 16 17 16 16 16 17 17 16 16 16 17 19 19 18 17 17 17 14 18 25 25 25 21 11 7 12 14 14 13 11
20 21 20 18 17 17 16 16 16 15 16 17 17 17 16 15 15 15 14 14 15 16 14 12 13 13 14 13 12 13 14 15 16 17 17 17 17 16 16 16 16 15 16 17 16 14 14 15 18 18 16 18 23 21 19 20 18 12 12 13 13 12 11
19 19 18 17 17 17 16 16 15 15 17 17 17 17 15 14 15 14 14 14 14 15 14 14 14 14 15 15 14 15 15 16 17 17 18 18 18 17 17 17 15 14 14 15 14 11 11 14 17 19 18 17 18 16 14 18 20 16 14 14 12 11 10
18 18 17 17 17 17 17 16 15 16 16 15 16 16 14 13 13 13 14 14 13 14 14 13 13 15 15 14 15 16 16 15 17 18 19 18 17 17 17 16 15 14 14 15 14 12 13 16 16 17 17 17 17 15 13 16 19 18 17 16 13 11 9
18 18 17 15 16 18 17 16 15 15 15 14 14 14 14 12 12 13 15 14 13 14 14 12 14 16 14 12 17 20 18 16 18 19 19 17 16 15 16 15 14 14 16 18 18 15 14 14 13 12 13 13 15 15 13 13 14 16 18 17 15 12 9
17 17 16 13 15 17 15 15 15 14 13 13 12 12 14 12 11 14 15 13 14 15 14 12 15 16 13 13 19 21 19 18 19 19 17 16 15 15 15 15 14 14 15 16 16 14 12 11 10 10 9 9 12 14 13 11 10 13 16 17 18 14 10
11 13 14 12 14 16 14 14 15 13 12 12 10 11 13 12 11 13 13 13 15 15 14 13 16 17 15 14 18 20 19 17 17 18 18 16 15 14 13 14 15 15 14 13 13 11 11 11 11 11 10 9 10 11 11 10 10 11 13 16 19 16 12
11 11 11 13 15 15 14 14 14 12 11 11 10 10 12 11 11 12 12 13 15 14 13 14 16 17 17 16 17 18 18 16 14 16 18 16 15 14 13 14 15 14 13 12 11 12 12 12 13 13 12 11 10 9 8 7 7 8 9 11 13 13 11
14 9 8 11 13 13 13 13 13 12 11 12 10 9 11 10 10 11 10 11 15 15 14 15 17 17 17 17 17 18 18 16 14 15 17 16 15 14 13 12 12 12 13 12 12 13 14 13 13 14 13 12 10 10 9 6 4 4 4 4 3 4 10
14 10 8 10 11 11 11 11 12 11 10 12 12 9 10 10 8 9 9 9 13 16 15 16 18 17 16 17 17 17 18 18 16 16 16 16 16 15 14 14 13 14 14 13 13 13 13 13 12 11 11 12 12 11 10 8 6 5 3 1 4 4 5
13 10 8 8 8 8 9 9 11 10 8 10 12 11 10 10 9 9 10 8 10 16 18 17 18 18 16 17 18 17 17 18 17 17 16 17 17 17 17 16 15 16 16 15 14 14 13 12 11 11 10 11 13 13 12 10 8 6 4 2 2 3 6
7 5 5 6 6 5 6 7 10 11 9 7 10 11 11 10 9 10 12 11 9 13 18 20 19 19 18 18 19 19 18 17 17 16 16 17 18 19 19 18 17 18 18 17 16 15 14 13 12 12 12 12 13 14 14 12 10 8 5 3 3 4 8
6 3 2 2 2 2 4 6 7 10 10 7 6 8 10 11 10 10 12 14 12 12 15 18 19 19 20 20 19 20 19 18 17 17 17 17 18 20 21 21 19 19 18 17 17 16 15 14 14 15 15 13 13 13 13 13 11 9 7 6 5 6 9
7 5 3 3 3 1 4 6 5 7 9 8 7 7 9 11 12 11 11 13 14 14 14 15 16 16 19 20 19 19 19 18 18 19 18 18 19 21 22 21 20 19 19 18 17 17 16 16 16 16 16 16 14 13 12 12 11 10 9 9 8 7 8
13 8 6 5 5 5 7 6 5 5 6 8 9 10 10 12 14 14 14 14 15 17 17 17 16 16 18 19 19 18 17 15 16 19 20 18 19 20 21 20 19 19 19 19 18 18 18 18 18 17 17 18 17 15 14 13 13 12 10 10 8 6 6
21 19 15 12 8 4 1 3 4 5 5 6 7 9 10 11 13 15 17 17 18 20 21 21 21 20 20 20 20 20 18 15 13 16 19 20 19 18 19 21 22 21 21 20 19 19 19 20 20 18 18 19 18 16 15 13 12 11 10 10 9 7 6
20 20 19 19 18 16 13 9 5 4 6 6 7 8 9 10 12 14 15 17 18 20 22 22 23 23 23 24 24 24 23 20 17 16 16 18 20 21 20 21 23 24 24 23 22 22 22 22 21 18 18 19 19 17 15 12 11 10 9 9 9 8 7
19 19 18 18 18 17 16 14 13 11 9 8 8 9 10 12 13 13 14 16 17 19 21 22 23 23 24 24 26 26 27 26 23 19 16 16 19 20 21 21 22 23 23 24 24 25 25 23 21 18 18 17 16 15 13 12 10 10 9 9 9 7 6
17 18 17 17 17 17 16 15 14 14 13 13 12 11 12 13 15 15 16 18 18 19 20 20 20 22 23 24 26 27 28 28 25 21 18 18 18 19 20 22 23 22 22 23 26 26 24 23 21 18 16 16 16 15 14 13 12 12 11 9 7 5 3
17 18 19 19 18 18 17 17 16 16 16 16 15 15 16 15 15 17 18 20 21 21 20 19 19 21 22 23 25 27 28 29 27 23 20 20 19 18 18 21 23 23 24 26 27 25 22 22 20 17 17 18 18 17 14 12 12 12 11 8 6 4 1
18 19 20 20 20 19 19 19 19 20 19 20 20 20 20 19 19 19 19 20 22 24 23 22 20 21 22 23 25 27 28 28 29 28 24 22 21 21 22 22 23 24 26 28 27 23 20 19 17 16 18 19 17 15 13 12 11 11 9 7 4 1 3
19 20 21 21 21 21 20 20 20 21 22 22 23 23 23 23 23 23 21 20 20 22 25 25 23 21 22 23 25 27 27 28 29 29 26 25 25 25 24 23 23 25 28 29 26 23 20 19 17 17 18 17 15 15 14 13 12 11 8 5 3 4 4
19 20 20 21 22 23 22 22 21 21 22 23 24 25 25 25 26 26 26 24 23 23 24 25 24 22 22 23 25 26 28 28 28 27 26 26 26 26 26 26 25 26 27 27 24 22 21 21 20 19 19 18 16 15 14 14 13 11 8 5 5 5 4
19 20 20 20 21 22 23 23 23 23 23 23 24 24 25 25 25 26 26 26 26 26 24 25 25 23 22 23 25 26 27 27 26 25 26 26 26 26 26 24 22 21 22 22 22 22 22 22 20 18 18 18 17 15 15 15 13 10 7 5 5 3 2
19 20 21 21 22 23 23 24 24 24 24 25 25 25 25 24 23 24 25 26 27 26 24 25 25 24 23 24 26 27 25 24 24 24 24 25 26 27 24 20 18 19 21 22 22 22 22 21 20 19 20 19 17 16 15 13 10 8 7 6 4 3 4
Wind_Direction
137 142 146 147 146 145 144 140 141 146 136 125 127 137 141 143 144 138 126 124 215 195 176 178 191 192 198 201 203 205 201 191 186 175 166 171 179 175 162 138 115 130 141 139 137 134 125 105 119 129 131 130 130 129 128 130 134 133 131 128 121 108 97
140 143 141 141 142 140 140 141 142 140 135 132 134 138 143 148 156 154 123 78 99 176 169 167 175 180 195 192 183 188 200 194 181 180 174 172 177 178 164 141 130 129 125 125 131 131 123 121 123 120 126 122 115 118 125 130 133 134 131 125 115 103 87
143 146 143 142 143 141 142 148 149 141 135 138 137 139 147 142 139 152 133 90 98 140 150 159 160 158 170 169 171 179 191 198 183 176 175 172 178 184 172 157 149 142 129 121 128 130 122 113 119 131 129 122 114 108 115 128 134 129 125 119 108 97 83
150 152 150 149 151 153 151 149 151 151 152 152 135 127 143 138 121 132 134 111 109 119 125 137 140 138 150 150 154 165 171 183 177 167 169 171 178 184 179 171 164 159 151 143 140 137 130 121 124 132 133 130 129 123 117 122 130 129 123 115 101 89 77
157 158 158 159 161 164 161 155 157 157 157 160 151 130 129 137 131 129 133 127 117 112 119 132 125 120 132 138 145 154 158 168 169 164 162 162 170 176 177 176 172 170 164 154 146 139 139 144 142 139 142 138 132 136 134 127 127 133 130 117 101 90 76
161 163 164 164 166 171 171 167 165 159 152 155 159 148 134 143 154 143 136 132 121 111 118 130 127 124 131 140 147 150 151 157 160 156 151 150 158 164 164 167 172 175 172 163 151 142 145 151 147 141 150 151 145 149 149 139 131 128 128 127 116 99 75
163 165 166 166 170 176 177 175 172 167 159 154 151 147 144 148 149 144 138 137 132 115 111 127 131 126 131 140 145 148 148 150 148 141 138 139 141 144 147 155 166 170 170 169 161 152 155 159 156 152 151 148 145 149 150 142 136 127 124 130 127 109 70
163 164 165 168 173 177 180 181 180 173 160 152 146 143 147 147 141 139 135 140 142 120 105 122 131 125 128 132 134 138 141 143 141 135 137 141 141 139 139 143 152 157 160 166 168 165 162 162 164 163 155 144 137 143 142 137 134 132 131 129 122 109 82
162 163 167 171 173 175 177 177 176 169 159 154 151 150 152 150 147 147 139 137 142 126 112 122 128 127 131 132 130 131 135 140 140 138 139 145 149 145 136 133 136 140 145 156 167 174 171 169 176 175 161 152 152 142 125 130 130 133 140 136 126 124 125
166 167 170 170 168 169 169 168 167 163 159 158 154 153 154 150 146 149 146 141 136 124 120 124 128 131 136 138 137 134 137 141 139 134 129 131 133 130 126 127 129 129 130 136 150 164 169 169 182 185 170 161 161 155 128 136 130 135 148 144 139 150 145
171 171 170 167 164 164 164 165 164 160 157 155 151 153 155 151 148 148 148 146 138 125 120 126 133 135 135 138 139 136 139 142 136 128 125 126 127 123 120 122 125 122 119 118 121 125 128 125 129 153 170 173 171 160 140 132 116 134 149 151 147 151 152
176 173 169 166 165 165 164 165 164 160 156 151 151 153 151 150 150 148 146 146 143 137 130 132 138 141 138 136 137 138 140 141 132 122 123 127 128 127 121 119 119 117 113 113 110 108 109 107 99 99 138 171 171 159 143 131 114 136 148 153 155 151 152
176 173 169 169 170 169 166 165 164 160 156 154 154 153 151 149 148 147 147 148 149 146 139 138 142 144 144 141 142 145 146 144 132 122 122 125 127 128 121 115 115 113 112 111 108 104 102 103 99 88 102 146 156 154 144 129 117 131 141 146 153 156 159
170 171 171 171 174 174 171 169 165 159 156 156 154 151 149 149 148 148 149 148 147 146 142 143 147 147 146 148 152 154 151 145 135 126 125 128 129 130 124 118 116 114 115 113 110 109 104 104 108 102 104 129 141 147 148 135 128 130 139 147 152 155 165
166 170 169 170 176 177 174 170 165 160 159 157 155 154 152 152 155 154 150 148 148 149 148 148 151 152 153 156 160 158 154 149 144 138 136 135 133 132 129 125 121 117 118 117 115 117 116 116 118 115 114 125 137 148 155 147 141 139 146 157 156 153 164
170 173 171 172 179 178 173 170 166 164 163 158 158 162 159 157 162 162 156 153 152 153 153 153 153 153 155 162 167 165 162 161 157 148 144 144 141 137 133 128 124 122 119 115 115 120 126 126 126 123 117 120 132 146 157 153 149 151 157 162 162 161 167
173 177 176 176 177 176 173 170 166 167 168 163 164 169 164 162 172 170 160 157 156 156 155 155 155 155 154 157 160 161 160 156 154 148 145 147 150 148 142 135 132 131 124 118 115 119 126 129 132 131 125 122 127 137 154 158 154 159 165 166 169 177 177
172 176 181 182 176 173 172 169 168 171 171 168 170 171 164 166 177 174 166 162 161 160 160 159 160 160 156 149 154 160 158 153 154 154 152 151 153 156 154 148 146 145 140 131 125 124 128 133 142 141 133 133 133 133 142 152 157 168 172 173 178 188 192
165 172 182 183 174 172 172 169 171 175 172 170 174 171 167 170 177 174 171 170 167 164 165 165 163 165 163 155 158 163 161 158 161 164 162 159 157 160 161 162 164 164 157 146 140 140 134 129 136 143 143 144 144 139 139 141 146 157 167 175 184 194 196
169 171 177 173 164 167 174 174 175 177 175 176 178 172 169 174 180 179 178 178 176 171 170 172 170 170 172 167 165 168 168 167 166 164 164 162 161 161 165 172 175 173 167 159 158 161 154 138 130 137 149 154 155 155 153 148 143 146 158 169 184 199 197
177 180 186 175 166 165 170 173 176 180 182 185 186 177 174 179 185 186 186 186 185 179 176 181 183 179 177 176 175 175 178 178 170 164 163 161 162 165 173 181 179 173 172 174 178 179 175 165 149 141 148 157 164 162 154 156 164 164 173 158 142 204 203
172 183 191 179 175 179 180 175 176 181 187 190 193 192 188 190 193 194 197 199 195 191 188 188 191 189 185 185 185 184 187 187 181 178 176 172 170 172 178 183 181 178 182 187 190 191 188 186 180 169 162 161 167 167 159 160 162 157 169 116 68 78 166
170 179 177 165 172 190 199 194 188 189 192 189 191 196 198 199 203 206 213 220 206 198 197 195 196 199 198 197 195 195 197 196 191 191 189 184 183 183 183 185 184 185 191 195 198 201 200 200 201 199 196 186 183 186 183 178 172 166 166 140 86 85 114
150 169 174 181 191 196 208 211 203 204 208 196 186 189 194 201 208 211 217 226 219 202 199 199 200 202 204 205 205 204 205 203 200 201 199 193 190 189 191 195 194 191 194 197 200 203 204 207 208 206 206 201 195 196 198 194 188 184 179 152 126 140 141
101 98 91 140 165 183 223 230 217 214 221 219 202 197 201 208 215 217 217 223 225 214 205 204 204 205 206 207 209 210 210 210 208 207 206 202 196 193 195 198 197 193 193 195 199 203 207 211 212 210 208 206 200 198 200 201 197 195 199 191 161 147 152
114 124 118 107 100 140 241 244 234 231 237 241 240 231 222 221 226 232 233 231 230 230 225 216 210 209 209 208 209 208 209 211 212 210 207 203 199 198 197 196 195 197 200 200 203 210 217 221 219 215 215 215 210 203 200 202 203 203 204 199 180 156 155
59 68 96 128 148 184 214 230 242 247 250 254 257 257 249 239 238 243 248 249 244 242 243 238 230 222 216 213 213 211 209 210 211 209 208 205 201 198 199 201 205 208 209 210 213 216 223 228 226 222 221 221 217 212 209 208 208 209 208 205 200 179 165
33 32 34 36 38 42 220 239 246 249 260 271 270 268 264 257 252 251 253 254 252 249 248 248 246 242 236 231 228 224 220 219 221 219 214 211 208 206 208 215 221 223 221 223 228 230 232 233 231 228 224 222 219 216 215 216 217 219 221 222 223 209 184
19 18 15 12 13 15 13 9 2 316 285 281 277 273 268 262 259 259 257 257 257 255 253 252 253 253 251 246 241 237 233 232 234 233 221 216 218 217 214 219 227 230 231 233 235 236 237 236 233 229 223 218 217 216 217 219 220 221 221 217 210 201 191
7 5 2 359 357 357 356 358 2 0 344 324 306 291 280 271 266 266 264 262 262 262 261 258 257 257 257 253 247 244 243 241 241 236 229 228 230 227 227 233 234 233 235 238 238 234 234 233 228 223 218 213 211 212 207 202 196 192 192 190 186 188 196
357 357 356 353 348 345 343 340 340 342 341 338 329 317 304 288 272 265 266 265 263 264 264 264 262 259 259 257 252 247 246 246 244 237 230 235 237 235 235 235 231 232 235 237 237 235 231 226 221 217 214 206 201 199 191 184 184 182 181 184 186 193 213
349 350 349 346 343 338 334 330 325 323 323 322 320 316 312 302 284 270 264 263 262 262 261 262 264 263 262 261 257 253 249 247 246 242 234 232 231 230 230 227 230 236 234 230 234 235 227 219 217 216 210 200 194 193 188 184 188 188 185 188 190 189 242
342 341 341 340 339 336 331 327 324 320 317 313 310 307 303 300 296 288 276 266 261 258 255 255 258 262 264 263 261 259 254 248 245 242 237 231 227 227 228 228 231 232 224 223 232 231 218 213 214 210 205 200 197 196 191 187 193 193 188 184 175 109 38
341 338 335 332 331 331 330 330 327 324 319 312 307 303 299 297 296 294 291 284 272 260 254 251 252 256 259 260 261 261 257 253 248 242 237 234 230 227 226 226 226 221 216 219 226 220 206 201 201 199 200 203 205 200 189 181 182 181 173 160 118 76 64
343 340 337 334 331 328 327 326 325 325 323 318 310 303 299 298 297 295 294 292 284 272 257 247 246 251 254 255 259 259 258 257 253 244 235 230 226 223 223 221 218 212 208 210 212 205 195 193 194 196 198 200 200 194 181 170 166 163 155 131 105 99 85
344 344 342 339 335 332 329 326 324 322 322 323 320 313 305 301 298 296 294 291 288 280 263 246 241 244 250 253 256 257 257 256 250 241 233 229 226 221 217 210 202 197 197 198 195 191 192 195 193 189 187 186 181 170 161 156 155 153 148 136 128 112 75
338 339 339 337 334 332 330 327 324 323 321 320 321 320 317 311 302 296 295 292 288 279 263 246 238 239 246 252 252 254 257 251 240 235 234 231 223 213 201 194 197 198 194 192 189 187 188 187 175 164 161 161 156 152 152 152 150 148 145 144 143 113 95
Height
813 815 817 818 819 819 820 821 822 823 824 825 826 827 828 829 829 829 830 830 830 831 831 831 831 832 833 835 836 837 837 838 838 838 839 839 839 839 839 840 841 842 843 845 846 848 852 857 859 858 858 859 860 860 860 861 862 863 864 864 864 864 864
814 816 818 819 820 820 820 820 821 822 824 825 827 828 828 829 829 829 830 829 829 830 831 831 831 832 833 834 835 836 836 837 838 838 838 839 840 840 840 841 842 843 844 845 847 848 850 854 858 858 858 859 860 861 862 862 863 864 864 865 865 865 865
813 815 817 819 819 819 819 820 821 822 824 825 827 828 828 829 829 829 829 830 829 830 831 832 831 832 833 834 836 836 836 837 837 838 839 840 840 840 841 841 842 843 845 846 848 850 850 852 855 857 858 858 860 862 863 863 864 865 865 865 866 866 866
812 814 816 818 819 819 819 820 821 822 823 825 826 827 828 829 829 829 830 830 830 831 832 832 832 833 834 835 836 837 838 837 837 838 839 840 840 840 841 842 842 843 844 845 847 849 850 852 854 856 858 858 859 862 863 864 864 865 866 866 866 866 867
810 813 815 817 819 819 819 820 820 821 823 825 826 827 828 829 829 830 830 831 831 832 832 833 834 834 835 836 836 838 838 838 838 839 839 839 839 840 841 842 842 843 843 845 847 848 850 851 853 855 857 858 860 862 864 865 865 866 866 866 867 867 867
809 812 815 817 819 820 820 820 820 821 823 824 826 827 828 829 830 831 831 832 832 833 833 834 835 835 836 836 837 838 838 838 839 839 839 839 839 840 840 841 841 842 844 845 847 848 850 852 853 854 856 858 860 862 864 865 866 867 867 867 867 867 868
809 812 815 817 819 820 821 821 821 821 822 824 826 827 828 829 830 831 832 833 833 834 834 835 836 836 837 838 838 839 839 839 839 839 839 839 840 840 840 840 841 842 844 845 847 848 850 852 852 853 855 858 860 862 864 866 866 867 868 868 868 868 868
810 813 816 818 820 821 822 822 822 822 823 824 826 827 829 830 831 832 833 834 834 835 835 836 837 838 839 839 839 840 840 840 840 840 840 840 840 840 841 841 842 842 844 845 847 848 850 851 852 852 853 856 860 863 864 865 866 867 868 869 869 869 869
811 814 816 818 820 821 822 823 823 823 823 824 826 828 829 830 831 832 834 835 835 835 836 837 839 840 840 841 841 841 841 841 841 840 840 840 840 841 841 842 842 843 844 845 847 849 850 851 852 853 852 853 857 862 864 865 866 867 867 868 869 870 870
812 815 817 818 820 821 822 823 823 823 824 825 826 828 829 830 832 833 834 835 836 836 837 838 840 841 842 842 842 842 842 841 841 841 841 841 841 841 841 842 843 843 845 846 847 849 850 851 852 853 853 853 855 859 862 865 866 867 867 868 869 870 871
813 815 817 818 819 820 821 822 823 824 824 825 827 828 830 831 832 833 835 836 836 837 838 839 840 842 843 844 843 843 843 842 841 841 840 840 841 841 842 843 843 844 845 846 847 849 850 850 851 853 853 853 854 856 858 862 866 866 867 868 868 869 870
813 815 816 818 819 820 821 822 823 824 824 825 827 829 830 831 832 834 835 836 836 837 838 839 841 842 843 844 844 844 844 843 842 841 841 840 840 841 842 844 844 845 846 846 847 849 849 850 851 852 852 853 855 856 856 859 863 866 867 867 868 869 869
813 814 816 817 819 820 821 821 823 824 825 826 827 829 830 831 832 833 834 835 836 837 838 839 840 842 844 845 845 845 845 845 843 842 842 841 841 842 843 844 845 846 847 847 847 849 850 851 851 852 853 853 855 857 857 858 862 866 867 867 868 868 869
812 814 816 817 819 820 821 822 823 824 825 826 827 829 830 831 832 834 834 835 836 837 838 839 840 842 843 845 846 846 846 846 845 844 843 842 842 843 844 844 846 847 847 847 848 849 850 851 852 853 854 855 856 858 858 859 862 865 867 867 868 868 869
813 815 816 817 819 820 821 822 823 825 826 827 827 828 830 831 833 834 835 836 836 837 838 839 840 841 842 844 845 846 847 847 846 845 844 844 843 843 844 845 846 847 848 848 849 850 851 852 853 854 856 857 858 859 859 860 862 864 866 867 867 868 868
814 816 817 818 819 820 822 823 824 825 826 827 827 828 830 831 833 834 835 836 836 837 838 839 839 840 842 843 845 846 847 847 847 846 845 844 844 844 845 845 846 848 848 849 850 851 852 853 854 855 856 857 858 859 860 860 861 863 864 866 867 867 867
815 817 818 819 819 820 821 823 824 825 826 827 828 829 830 831 833 834 835 836 836 837 838 839 839 840 841 842 843 845 846 846 847 846 845 845 845 845 846 846 847 848 849 850 851 852 853 854 855 855 857 858 858 859 860 861 861 862 863 865 866 866 866
816 818 820 820 820 821 822 823 824 825 826 827 828 829 830 831 833 833 834 835 836 837 837 838 839 840 841 842 843 844 845 845 846 845 845 845 845 846 846 847 847 848 849 849 850 852 853 853 854 855 856 857 858 859 860 861 861 862 863 864 865 865 865
818 819 820 821 821 821 822 823 824 825 826 827 828 829 830 831 832 832 833 834 835 836 837 837 838 839 840 841 842 843 844 845 845 844 844 844 844 845 846 846 847 847 848 849 850 851 852 853 854 855 856 857 858 859 860 861 861 861 862 863 863 864 864
820 820 820 820 820 821 822 823 824 825 826 827 828 829 829 830 831 831 832 833 834 835 836 837 837 838 839 840 841 843 844 845 845 844 844 844 844 845 845 845 846 847 848 849 849 850 851 852 853 854 855 857 858 858 859 860 860 861 862 862 862 863 862
819 820 820 820 820 821 821 822 823 824 826 827 828 828 829 829 830 830 831 832 833 834 835 836 837 837 838 839 841 842 843 844 844 844 844 844 844 845 845 846 846 847 848 848 849 850 850 851 852 853 854 855 856 857 858 859 860 860 861 861 861 861 861
819 820 821 819 819 820 821 822 823 824 825 826 827 828 828 829 829 830 830 831 832 832 833 834 835 836 837 838 840 841 842 842 842 843 843 843 844 844 845 845 846 847 848 848 849 850 850 851 851 852 853 854 855 856 857 858 858 859 860 860 860 861 861
818 820 819 819 819 820 821 822 823 824 824 825 826 826 827 828 828 829 829 830 831 831 832 833 834 835 836 837 838 839 840 841 841 841 841 842 843 843 844 844 845 846 846 847 848 849 850 851 851 851 852 853 854 854 855 856 856 857 858 858 859 860 860
817 818 818 819 820 820 821 822 823 824 824 824 825 825 826 827 827 828 828 829 830 830 831 831 832 833 834 835 836 837 838 839 840 840 841 841 841 842 842 842 843 843 844 845 846 847 848 849 850 851 851 852 852 853 853 854 854 855 856 856 857 858 858
816 817 817 818 819 820 822 823 823 823 824 824 825 825 826 826 827 827 828 828 829 829 830 830 830 831 832 833 834 835 836 837 838 839 839 839 840 840 840 840 841 842 843 844 845 846 847 848 849 849 850 850 851 851 852 852 853 853 854 855 855 856 857
819 819 819 819 819 820 823 824 824 823 824 824 825 825 826 826 826 827 827 828 829 829 829 829 829 830 831 831 832 833 833 835 835 836 836 836 837 838 838 838 839 840 841 841 842 844 845 846 846 847 848 849 849 850 850 851 851 852 853 854 854 855 855
823 823 823 823 823 823 824 824 824 824 824 824 824 825 825 826 826 826 827 827 828 828 828 828 828 829 829 829 830 830 831 832 832 832 832 833 835 836 837 837 837 838 839 839 840 841 842 843 844 845 846 847 848 848 849 849 850 851 851 852 853 854 854
821 822 823 824 824 824 824 823 823 822 822 823 823 824 824 825 825 826 826 826 827 827 827 827 827 827 827 828 828 828 828 829 829 829 829 830 831 833 834 834 835 836 836 837 838 839 839 840 842 843 844 845 846 846 847 847 848 849 850 851 852 852 853
820 820 821 822 822 822 823 823 822 822 822 822 822 823 823 824 824 824 825 825 825 825 825 825 825 824 824 825 825 825 825 826 827 827 827 827 828 828 830 831 832 833 833 834 836 836 837 838 839 841 842 842 843 844 845 846 847 848 850 850 851 851 852
821 821 821 821 821 822 822 821 821 822 822 822 822 822 822 822 823 823 823 823 823 822 822 822 822 822 821 821 821 821 822 823 824 824 824 825 825 826 827 828 828 829 830 831 833 834 834 836 837 838 840 840 841 843 843 844 846 847 849 849 850 851 851
823 822 822 822 822 822 821 821 820 820 820 821 821 821 821 821 821 821 821 820 820 820 820 819 819 819 818 818 818 818 819 819 820 821 822 822 822 822 823 824 825 826 827 828 830 831 832 833 835 836 837 838 840 842 842 843 844 846 847 848 849 850 850
823 822 822 822 822 822 821 820 820 819 819 819 819 819 820 820 820 820 819 818 817 817 817 817 817 816 815 815 815 815 815 816 816 817 818 819 819 819 820 821 822 823 825 826 828 828 829 830 832 833 835 836 837 839 840 841 843 844 846 847 848 849 849
822 821 821 821 821 821 821 820 819 819 818 818 818 818 818 818 818 818 817 817 815 815 814 814 814 814 813 812 812 811 811 811 811 812 814 815 816 816 817 818 819 820 822 824 825 826 828 828 830 832 833 833 835 836 838 840 842 843 845 846 847 848 848
822 821 821 820 820 820 819 819 819 818 818 818 817 817 817 816 815 815 814 814 813 812 811 811 811 811 810 810 809 808 808 807 807 809 810 811 812 813 814 815 816 817 819 820 821 823 825 826 828 830 831 832 833 835 837 839 841 842 844 845 846 846 847
823 822 821 820 819 819 818 818 818 818 817 817 816 816 815 814 813 812 811 811 810 809 808 808 808 808 808 807 807 806 805 805 805 806 807 808 809 809 810 812 812 813 815 817 819 821 823 825 827 828 829 831 833 834 836 838 840 842 843 844 845 845 846
823 822 821 820 820 819 818 818 818 818 817 816 815 814 813 813 812 810 809 808 807 806 805 805 804 804 804 804 804 804 803 803 804 804 804 805 806 807 808 810 811 812 813 815 818 820 823 825 826 827 828 830 832 834 835 837 839 841 842 843 844 846 847
822 822 821 820 819 818 818 818 817 817 816 815 814 813 812 811 810 808 807 805 804 802 802 801 801 801 801 801 801 801 801 802 803 803 802 803 803 805 807 810 813 813 813 814 817 820 823 824 825 826 828 830 832 833 835 837 839 840 842 843 845 846 847